Location: Basses Si�yes
(44.0835°N, 6.2037°E)
Time: 09:53:56
(UTC+00:00)

STARLINK-1045 - Pass Details

Date: 27 February 2020
Orbit: 549 x 551 km, 53.0° (Epoch: 10 April)

Event Time Altitude Azimuth Distance (km) Brightness Sun altitude
Rises 18:29:09 0° 241° (WSW) 2,710 8.3 -13.2°
Reaches altitude 10° 18:31:23 10° 243° (WSW) 1,820 7.3 -13.6°
Maximum altitude 18:35:30 71° 328° (NNW) 585 3.8 -14.3°
Enters shadow 18:38:32 18° 51° (NE) 1,391 5.2 -14.9°
